Location: Audinghen
(50.8518°N, 1.6129°E)
Time: 05:40:29
(UTC+00:00)

Cosmos 783 Rocket - Pass Details

Date: 07 August 2020
Orbit: 757 x 781 km, 74.1° (Epoch: 19 September)

Event Time Altitude Azimuth Distance (km) Brightness Sun altitude
Rises 00:46:45 0° 333° (NNW) 3,237 8.5 -22.0°
Reaches altitude 10° 00:49:08 10° 331° (NNW) 2,310 7.6 -21.9°
Maximum altitude 00:54:20 67° 250° (WSW) 833 4.5 -21.7°
Enters shadow 00:55:30 51° 193° (SSW) 964 4.6 -21.7°
